Location: Newark
(7.0858°N, 171.3717°E)
Time: 04:22:31
(UTC+00:00)

Vanguard 2 - Pass Details

Date: 02 December 2020
Orbit: 553 x 2937 km, 32.9° (Epoch: 26 January)

Event Time Altitude Azimuth Distance (km) Brightness Sun altitude
Rises 21:08:33 0° 280° (W) 5,085 11.3 33.9°
Reaches altitude 10° 21:14:56 10° 305° (NW) 3,445 10.4 35.2°
Maximum altitude 21:18:17 13° 329° (NNW) 2,892 10.1 35.9°
Drops below altitude 10° 21:21:08 10° 354° (N) 2,797 10.2 36.5°
Sets 21:25:08 0° 24° (NNE) 3,340 10.7 37.3°
